Regional Weather Roundup
Issued by NWS Wakefield, VA

Home | Current Version | Previous Version | Text Only | Print | Product List | Glossary Off
Versions: 1 2 3 4 5 6 7 8 9 10 11 12 13 14 15 16 17 18 19 20 21 22 23 24 25 26 27 28 29 30 31 32 33 34 35 36 37 38 39 40 41 42 43 44 45 46 47 48 49 50

000
ASUS41 KAKQ 280210
RWRAKQ

REGIONAL WEATHER ROUNDUP
NATIONAL WEATHER SERVICE WAKEFIELD VA
900 PM EST TUE JAN 27 2015

Note: "fair" indicates few or no clouds below 12,000 feet with no
significant weather and/or obstructions to visibility. * = Denotes
station may not report precipitation (e.g., rain,snow,etc.),
thunder or fog.

VAZ042-051-052>054-056-280300-
NORTHERN VIRGINIA

CITY           SKY/WX    TMP DP  RH WIND       PRES   REMARKS
WASH NATIONAL  PTCLDY    32  17  54 NW16G28   29.92R WCI  21
DULLES         PTCLDY    27  16  63 NW17G24   29.92R WCI  14
FORT BELVOIR   PTCLDY    29  17  60 NW14G24   29.92R WCI  19
QUANTICO       CLOUDY    31  16  54 N20G25    29.94R WCI  19
FREDERICKSBRG* CLOUDY    33  20  59 NW8G18    29.91R
STAFFORD*      MOCLDY    30  17  59 NW10      29.96R WCI  21
WARRENTON      MOCLDY    31  23  71 NW15      29.91R WCI  20
CULPEPER*      PTCLDY    30  19  64 NW3       29.92R
MANASSAS*      CLEAR     28  19  69 NW20G25     N/A  WCI  15
LEESBURG*      PTCLDY    30  21  69 NW15G21   29.93R WCI  19
WINCHESTER     CLOUDY    28  14  54 NW16G23   29.94R WCI  17
FRONT ROYAL*   CLOUDY    28  18  64 W3        29.93S
LURAY*         CLOUDY    30  19  64 W5        29.95R
$$

VAZ048-049-060>072-079>083-280300-
CENTRAL AND SOUTH CENTRAL VIRGINIA

CITY           SKY/WX    TMP DP  RH WIND       PRES   REMARKS
RICHMOND       MOCLDY    33  22  63 NW10      29.91R WCI  25
CHESTERFIELD*  CLOUDY    34  18  51 N8        29.92R
PETERSBURG*    CLOUDY    34  28  79 NW3       29.92R
HANOVER        PTCLDY    30  21  69 NW3       29.92R
TAPPAHANNOCK*  MOCLDY    32  18  55 NW8       29.91R
QUINTON*       MOCLDY    32  22  66 NW7       29.90R
CHARLOTTSVILLE CLOUDY    30  15  53 NW9       29.91R
GORDONSVILLE*  CLOUDY    31  17  57 NW6       29.91R
ORANGE*        CLOUDY    32  23  69 CALM      29.92S
LOUISA*        MOCLDY    32  23  69 W5        29.89S
BUMPASS*       FAIR      31  21  67 CALM      29.90S
FARMVILLE*     CLEAR     32  18  55 CALM      29.92R
CREWE*         FAIR      31  20  64 NW6       29.92R
FORT PICKETT*  CLOUDY    31  24  73 NW7       29.91R
CHASE CITY*    FAIR      32  26  80 CALM      29.93R
CLARKSVILLE*   FAIR      32  23  69 CALM      29.92R
SOUTH HILL*    CLOUDY    29  24  81 CALM      29.97R
LAWRENCEVILLE* CLOUDY    32  28  84 NW5       29.90R
EMPORIA*       CLOUDY    32  32 100 CALM      29.93R
$$

VAZ088>098-280300-
SOUTHEAST VIRGINIA

CITY           SKY/WX    TMP DP  RH WIND       PRES   REMARKS
NORFOLK        CLOUDY    35  23  61 NW9       29.88R
VIRGINIA BEACH CLOUDY    36  26  67 NW13      29.87R
NORFOLK NAVAL  PTCLDY    38  24  57 NW16      29.90R
WEST POINT*    MOCLDY    34  22  60 NW5       29.92R
SALUDA*        MOCLDY    32  23  70 NW12G22   29.88R WCI  23
NEWPORT NEWS   CLOUDY    37  23  56 NW9       29.89R
LANGLEY AFB    CLOUDY    34  24  65 NW10      29.88R
FORT EUSTIS    CLOUDY    35  25  67 N12G21    29.88R
WILLIAMSBURG*    N/A     36  27  69 NW10G16   29.90R
HR EXEC AP*    CLOUDY    34  25  69 NW6       29.91R
FRANKLIN*      CLOUDY    34  28  79 NW6       29.91R
WAKEFIELD      CLOUDY    35  28  75 CALM      29.90R
$$

VAZ020-022-025-037-045-280300-
WEST CENTRAL AND SOUTHWEST VIRGINIA

CITY           SKY/WX    TMP DP  RH WIND       PRES   REMARKS
STAUNTON*      CLOUDY    27  13  56 N10       29.96R WCI  17
WAYNESBORO*    FAIR      23  11  61 NW6       29.93R
HOT SPRINGS VA CLOUDY    12   9  85 NW20G30   29.78R WCI  -6
LYNCHBURG      CLEAR     28  12  51 VRB7G20   29.95R
DANVILLE       CLEAR     32  11  41 NW14G23   29.96R WCI  22
SOUTH BOSTON*  FAIR      32  11  41 NW9       29.95R
MARTINSVILLE   MOCLDY    32   8  35 N13G20    30.00R WCI  22
ROANOKE        PTCLDY    24  10  55 NW10G20   30.01R WCI  14
BLACKSBURG     CLOUDY    20  11  67 NW13G18   29.98R WCI   7
DUBLIN*        MOCLDY    24  13  63 N6        29.99R
MARION*        CLEAR     25   0  33 W15G23    29.98R WCI  13
HILLSVILLE*    PTCLDY    24   0  35 NW17      29.89R WCI  10
RICHLANDS*     FAIR      21  10  60 NW9       30.01R
WISE*          CLEAR     25  10  54 NW8       30.03R
ABINGDON*      CLEAR     29  18  63 W6        30.03R
$$

MDZ021>025-VAZ099-100-280300-
SOUTHERN MARYLAND AND THE DELMARVA PENINSULA

CITY           SKY/WX    TMP DP  RH WIND       PRES   REMARKS
PATUXENT RIVER PTCLDY    32  20  61 NW25G33   29.88R WCI  19
BAY BRIDGE APT   N/A     32  19  59 NW16G25   29.89R WCI  21
LEONARDTOWN    PTCLDY    32  19  59 NW7       29.90R
DOVER          CLEAR     30  19  64 NW14      29.84R WCI  19
GEORGETOWN     CLEAR     31  18  58 NW7G17    29.84R
EASTON         CLEAR     32  23  69 NW15      29.90R WCI  22
CAMBRIDGE      CLEAR     34  23  64 NW14G22   29.87R WCI  24
SALISBURY      CLEAR     33  22  63 NW14      29.85R WCI  23
OCEAN CITY     CLEAR     31  19  61 NW10      29.83R WCI  22
WALLOPS ISLAND CLEAR     31  23  72 NW10G21   29.85R WCI  22
ACCOMACK*      MOCLDY    32  23  69 NW13G23   29.86R WCI  22
$$

NCZ012>017-030>032-280300-
NORTH CENTRAL AND EASTERN NORTH CAROLINA

CITY           SKY/WX    TMP DP  RH WIND       PRES   REMARKS
ROANOKE RAPIDS CLOUDY    34  28  80 N6        29.92R
RALEIGH        PTCLDY    37   5  26 VRB7      29.92R
ELIZABETH CITY CLOUDY    33  28  81 W10       29.89R WCI  25
AHOSKIE*       CLOUDY    33  29  83 CALM      29.92R
EDENTON*       CLOUDY    35  30  83 NW8       29.90R
CURRITUCK*     PTCLDY    33  27  79 W5        29.88R
KILL DEVIL HLS PTCLDY    35  30  83 NW8       29.85S
MANTEO         CLOUDY    36  28  75 NW9G16    29.87R
CAPE HATTERAS  CLOUDY    36  30  79 NW10G20   29.87R
TARBORO*       CLOUDY    33  31  92 CALM      29.93R
GOLDSBORO      CLEAR     31  30  98 CALM      29.90R
WASHINGTON     CLOUDY    35  29  79 CALM      29.92R
GREENVILLE     MOCLDY    34  30  86 CALM      29.94R
NEW BERN       MOCLDY    35  27  72 W5        29.92R
WILMINGTON     CLEAR     31  29  92 CALM      29.93R
$$

VAZ048-280300-
ELSEWHERE

CITY           SKY/WX    TMP DP  RH WIND       PRES   REMARKS
HARRISBURG PA  PTCLDY    26   3  37 N14G22    29.90R WCI  14
BALTIMORE      PTCLDY    29  16  58 NW12      29.88R WCI  19
ANNAPOLIS      CLEAR     31  20  63 NW14G21   29.89R WCI  21
ANDREWS AFB    PTCLDY    29  18  63 NW16G22   29.89R WCI  17
PHILADELPHIA   MOCLDY    28   8  43 N10       29.84R WCI  19
HENDERSON NC   CLEAR     33   8  34 NW7       29.92R
GREENSBORO     PTCLDY    34   3  27 NW8       29.94R
ROCKY MOUNT    CLEAR     28  25  88 CALM      29.92R
$$

VAZ100-280300-
MARINE

STATION/POSITION TIME  TEMP    WIND        PRES    WAVE   SWELL
                       AIR SEA DIR/SP/G            HT/PER HT/PER
                 (UTC) (F)     (DEG/KT/KT) (MB)    (FT/S) (FT/S)
BRANDYWINE LGT   0200          330/ 17/ 22   N/A
CAPE MAY NJ      0200   32 37  320/ 18/ 23 1009.1R
LEWES DE         0200   33 36  310/ 18/ 21 1009.8R
15NM E FENWICK I 0200   34 41              1008.8R   8/11
OCEAN-CITY-INLET 0200   32 38  330/ 10/ 13 1009.7R
WACHAPREAGUE VA  0200   33 40  320/  5/ 11 1010.9S
THOMAS POINT MD  0200   31 36  320/ 16/ 20 1013.1R
GOOSES REEF MD   0200   32     VRB 17/ 21  1010.7R
COVE POINT MD    0200   31     330/ 16/ 20 1011.5R
SOLOMONS ISLAND  0200      38                N/A
BISHOPS HEAD MD  0200   32 36  330/ 14/ 20 1010.9R
PINEY POINT MD   0200          340/ 19/ 21   N/A
POTOMAC MD       0200   33     340/ 17/ 19 1010.9R
CAMBRIDGE MD     0200   33 36  320/ 16/ 21 1011.2R
LEWISETTA VA     0200   33 37  330/ 14/ 20 1012.0R
RAPPAHANNOCK LGT 0200          320/ 24/ 26 1011.8R
STINGRAY PT      0200   33     330/ 16/ 17 1012.3R
YORK RVR RNG VA  0200   35     340/ 19/ 22 1011.1R
JAMESTOWN VA     0200   35     340/ 16/ 19   N/A
DOMINION TERM VA 0200   36     340/ 16/ 21 1011.8R
KIPTOPEKE VA     0200      45  340/ 22/ 27   N/A
CHES BAY BRIDGE  0200   36 41  320/ 20/ 26 1011.3R
CAPE HENRY VA    0200   35     320/ 21/ 25 1010.2R
CHESAPEAKE LGHT  0100   36     320/ 24/ 26 1010.9R
WILLOUBY STN VA  0200   35     320/ 15/ 20 1012.3R
S CRANEY ISL VA  0200          330/ 12/ 18 1011.6R
CAPE HENRY BUOY  0200      44                N/A     6/13   3/13
1ST LANDING BUOY 0200   36     320/ 21/ 25 1011.2R
CAPE CHARLES BUO 0200      42                N/A     6/13   5/13
OFFSHORE WE BUOY 0200      45                N/A     8/13   7/13
64NM E OF VA BCH 0200   39 51  320/ 21/ 27 1009.2R  15/14  13/14
DUCK PIER NC     0200   35 43  310/ 12/ 15 1010.5R
44100 DUCK FRF   0200      45                N/A     9/12   7/12
44056 DUCK FRF   0200      43                N/A     8/13   5/13
OREGON INLET NC  0200   36 44  300/ 12/ 18 1011.0S
HATTERAS NC      0200   38 48  330/ 19/ 22 1011.7R
DIAMOND SHLS NC  0200   40 69  330/ 21/ 25 1010.5R   9/14   7/14


USA.gov is the U.S. government's official web portal to all federal, state and local government web resources and services.